Tracking 19847 objects as of 16-Sep-2019
HD Live streaming from Space Station
objects crossing your sky now

FENGYUN 1C DEB

Track FENGYUN 1C DEB now!
10-day predictions


NORAD ID: 35152
Int'l Code: 1999-025DMG
Perigee: 850.8 km
Apogee: 1,144.6 km
Inclination: 99.6 °
Period: 104.9 minutes
Semi major axis: 7368 km
RCS: 0.009 m2 (small)
Launch date: May 10, 1999
Source: People's Republic of China (PRC)
Launch site: Taiyaun Space Center, China (TSC)

Note: This is SATELLITE DEBRIS
aabbcc
Your satellite tracking list
Your tracking list is empty




NASA's NSSDC Master Catalog

Two Line Element Set (TLE):
1 35152U 99025DMG 19259.10858764  .00000384  00000-0  40588-3 0  9999
2 35152  99.6384   7.3123 0199370 148.3367 212.9955 13.72505647592317
Source of the keplerian elements: AFSPC